Simultaneous Nadir Overpasses (SNOs) Predictions

Prediction of SNOs between GOES-17 and METOP-B Satellite Orbit:

Table of predicted SNOs for the next 14.0 days since TLE Epoch: 12/24/2022
Index Date Time (GOES-17) GOES-17 Lat,Lon METOP-B Lat,Lon Distance(km) Time Diff (sec)
1 12/24/2022 18:28:42 -0.00,-137.34 -0.67,-134.37 337.99 80
2 12/26/2022 06:45:03 0.00,-137.33 -0.37,-138.96 186.90 80
3 12/27/2022 06:27:03 -0.00,-137.32 0.72,-133.97 381.62 80
4 12/28/2022 18:43:15 0.00,-137.31 0.28,-138.53 138.97 80
5 12/29/2022 18:25:16 0.00,-137.30 -0.82,-133.53 429.48 80
6 12/31/2022 06:41:36 -0.00,-137.29 -0.22,-138.13 95.82 80
7 01/01/2023 06:23:38 -0.00,-137.28 0.94,-133.14 472.38 80
8 01/02/2023 18:39:49 0.00,-137.27 0.10,-137.69 49.07 80
9 01/05/2023 06:38:10 -0.00,-137.23 -0.03,-137.29 7.80 80
